Location: Kam�li
(14.6864°N, 3.1482°W)
Time: 00:37:11
(UTC+00:00)

SEDSat Delta rocket - Pass Details

Date: 29 October 2020
Orbit: 533 x 1000 km, 31.4° (Epoch: 02 December)

Event Time Altitude Azimuth Distance (km) Brightness Sun altitude
Rises 18:38:29 0° 252° (WSW) 3,698 9.0 -13.4°
Reaches altitude 10° 18:41:15 10° 256° (WSW) 2,756 7.8 -14.1°
Maximum altitude 18:47:53 55° 333° (NNW) 1,156 4.5 -15.7°
Enters shadow 18:52:33 19° 45° (NE) 2,088 5.3 -16.8°
